GW2585 Weather Reports


time (UTC)temp
C
wind
direction
speed
KPH
gust
KPH
rain 1hr
cm
rain 24hr
cm
rain mn
cm
humidity
%
barometer
mb
20260505214248 11 99 1.6 1.6 0.00 0.00 0.00 72 1008.7
20260505213745 11 268 4.8 6.4 0.00 0.00 0.00 72 1008.2
20260505213242 11 202 1.6 1.6 0.00 0.00 0.00 72 1008.3
20260505212738 12 254 4.8 6.4 0.00 0.00 0.00 72 1008.9
20260505212236 12 304 6.4 6.4 0.00 0.00 0.00 72 1008.8
20260505211732 12 117 1.6 3.2 0.00 0.00 0.00 72 1008.6
20260505211230 12 190 3.2 3.2 0.00 0.00 0.00 72 1008.5
20260505210726 12 135 3.2 3.2 0.00 0.00 0.00 73 1008.4
20260505210223 12 52 3.2 4.8 0.00 0.00 0.00 72 1008.2
20260505205720 12 299 3.2 4.8 0.00 0.00 0.00 73 1008.2
20260505205219 12 173 1.6 3.2 0.00 0.00 0.00 73 1008.0
20260505204715 12 338 3.2 4.8 0.00 0.00 0.00 73 1008.3
20260505204213 12 38 11.3 16.1 0.00 0.00 0.00 73 1008.3
20260505203710 12 249 4.8 4.8 0.00 0.00 0.00 72 1008.0
20260505203207 12 111 3.2 4.8 0.00 0.00 0.00 73 1007.8
20260505202702 12 148 1.6 1.6 0.00 0.00 0.00 74 1008.0
20260505202158 12 39 3.2 4.8 0.00 0.00 0.00 74 1008.1
20260505201655 12 148 1.6 3.2 0.00 0.00 0.00 74 1008.2
20260505201153 12 190 3.2 3.2 0.00 0.00 0.00 74 1008.2
20260505200651 12 150 3.2 3.2 0.00 0.00 0.00 74 1008.1
20260505200147 12 131 4.8 9.7 0.00 0.00 0.00 74 1008.0
20260505195643 12 251 4.8 6.4 0.00 0.00 0.00 73 1008.1
20260505195141 12 209 4.8 6.4 0.00 0.00 0.00 74 1008.3
20260505194638 12 143 6.4 9.7 0.00 0.00 0.00 73 1008.4
20260505194134 12 169 3.2 4.8 0.00 0.00 0.00 74 1008.3
20260505193631 12 151 4.8 4.8 0.00 0.00 0.00 74 1008.2
20260505193128 12 108 1.6 3.2 0.00 0.00 0.00 74 1008.3
20260505192626 12 187 1.6 3.2 0.00 0.00 0.00 75 1008.0
20260505192123 12 85 6.4 9.7 0.00 0.00 0.00 75 1008.1
20260505191621 12 182 1.6 3.2 0.00 0.00 0.00 75 1007.9
20260505191119 12 283 3.2 4.8 0.00 0.00 0.00 75 1007.7
20260505190614 12 57 3.2 4.8 0.00 0.00 0.00 74 1007.9
20260505190109 12 154 3.2 3.2 0.00 0.00 0.00 75 1008.0
20260505185601 12 171 3.2 4.8 0.00 0.00 0.00 74 1007.9
20260505185057 12 105 3.2 6.4 0.00 0.00 0.00 74 1007.7
20260505184554 12 178 1.6 1.6 0.00 0.00 0.00 74 1007.5
20260505184051 12 130 0.0 1.6 0.00 0.00 0.00 74 1007.6
20260505183548 12 252 3.2 4.8 0.00 0.00 0.00 74 1007.4
20260505183045 12 60 1.6 3.2 0.00 0.00 0.00 76 1007.3
20260505182541 12 162 1.6 1.6 0.00 0.00 0.00 77 1007.3
20260505182038 12 142 6.4 6.4 0.00 0.00 0.00 77 1007.2
20260505181535 12 67 1.6 3.2 0.00 0.00 0.00 78 1007.2
20260505181032 12 122 4.8 9.7 0.00 0.00 0.00 79 1007.1
20260505180527 12 104 3.2 3.2 0.00 0.00 0.00 79 1007.2
20260505180026 12 239 3.2 4.8 0.00 0.00 0.00 80 1007.2
20260505175525 12 55 3.2 3.2 0.00 0.00 0.00 81 1007.1
20260505175023 12 87 4.8 6.4 0.00 0.00 0.00 81 1006.9
20260505174520 12 72 0.0 1.6 0.00 0.00 0.00 81 1007.2
20260505174016 12 113 0.0 1.6 0.00 0.00 0.00 81 1006.9
20260505173513 12 203 3.2 4.8 0.00 0.00 0.00 82 1007.0
20260505173010 12 162 4.8 4.8 0.00 0.00 0.00 81 1006.9
20260505172508 12 118 1.6 1.6 0.00 0.00 0.00 81 1006.7
20260505172003 12 160 3.2 3.2 0.00 0.00 0.00 82 1006.9
20260505171459 12 142 3.2 6.4 0.00 0.00 0.00 82 1006.9
20260505170956 12 148 4.8 4.8 0.00 0.00 0.00 81 1006.7
20260505170453 12 105 1.6 1.6 0.00 0.00 0.00 81 1006.5
20260505165948 12 177 3.2 4.8 0.00 0.00 0.00 81 1006.4
20260505165444 13 216 3.2 3.2 0.00 0.00 0.00 81 1006.1
20260505164940 13 188 3.2 4.8 0.00 0.00 0.00 81 1005.9
20260505164437 13 213 3.2 4.8 0.00 0.00 0.00 81 1005.9
20260505163934 12 130 0.0 1.6 0.00 0.00 0.00 82 1005.8
20260505163433 12 151 3.2 6.4 0.00 0.00 0.00 81 1005.8
20260505162932 12 107 3.2 9.7 0.00 0.00 0.00 82 1005.7
20260505162427 12 71 8.0 9.7 0.00 0.00 0.00 82 1005.6
20260505161924 13 115 0.0 1.6 0.00 0.00 0.00 82 1005.5
20260505161421 13 249 1.6 3.2 0.00 0.00 0.00 83 1005.3
20260505160919 12 14 3.2 3.2 0.00 0.00 0.00 83 1005.0
20260505160416 12 181 1.6 3.2 0.00 0.00 0.00 83 1005.2
20260505153355 13 141 0.0 1.6 0.00 0.00 0.00 84 1004.4
20260505152852 13 275 1.6 3.2 0.00 0.00 0.00 84 1004.4
20260505152349 13 161 1.6 1.6 0.00 0.00 0.00 85 1004.4
20260505151843 13 213 4.8 6.4 0.00 0.00 0.00 85 1004.4
20260505151340 13 126 3.2 3.2 0.00 0.00 0.00 85 1004.4
20260505150837 13 193 3.2 6.4 0.00 0.00 0.00 85 1004.2
20260505150334 13 61 3.2 4.8 0.00 0.00 0.00 85 1004.0
20260505140259 17 76 3.2 9.7 0.00 0.00 0.00 86 1002.3
20260505130223 18 82 1.6 1.6 0.00 0.00 0.00 85 1001.2
20260505124713 18 63 0.0 1.6 0.00 0.00 0.00 86 1001.2
20260505124209 18 142 1.6 3.2 0.00 0.00 0.00 86 1001.6
20260505123705 18 111 0.0 0.0 0.00 0.00 0.00 86 1001.2
20260505123203 18 124 1.6 1.6 0.00 0.00 0.00 87 1001.2
20260505122659 18 178 0.0 1.6 0.00 0.00 0.00 87 1000.8
20260505122156 18 145 1.6 1.6 0.00 0.00 0.00 87 1000.5
20260505121652 18 137 0.0 0.0 0.00 0.00 0.00 87 1000.6
20260505121149 18 180 4.8 6.4 0.00 0.00 0.00 87 1000.6
20260505120645 18 99 1.6 3.2 0.00 0.00 0.00 87 1000.6
20260505120142 18 172 3.2 4.8 0.00 0.00 0.00 87 1000.6
20260505115635 18 33 4.8 6.4 0.00 0.00 0.00 87 1000.6
20260505115133 18 112 1.6 3.2 0.00 0.00 0.00 88 1000.7
20260505114624 18 145 1.6 3.2 0.00 0.00 0.00 88 1000.5
20260505114121 17 105 1.6 1.6 0.00 0.00 0.00 88 1000.6
20260505113617 17 111 0.0 1.6 0.00 0.00 0.00 88 1000.6
20260505113114 17 352 1.6 1.6 0.00 0.00 0.00 88 1000.5
20260505112610 17 83 1.6 3.2 0.00 0.00 0.00 88 1000.3
20260505112108 17 113 0.0 1.6 0.00 0.00 0.00 88 1000.3
20260505111602 17 107 0.0 0.0 0.00 0.00 0.00 88 1000.2
20260505111058 18 109 0.0 0.0 0.00 0.00 0.00 88 1000.0
20260505110555 18 133 0.0 0.0 0.00 0.00 0.00 88 1000.2
20260505102027 18 114 0.0 0.0 0.00 0.00 0.00 89 999.8
20260505101526 18 141 0.0 1.6 0.00 0.00 0.00 89 999.8
20260505101022 18 144 0.0 0.0 0.00 0.00 0.00 89 999.7
20260505100519 18 113 0.0 0.0 0.00 0.00 0.00 89 999.5
20260505100016 18 123 0.0 0.0 0.00 0.00 0.00 89 999.3
20260505095512 18 112 0.0 0.0 0.00 0.00 0.00 89 999.2
20260505095008 18 117 0.0 0.0 0.00 0.00 0.00 89 998.9
20260505094505 18 104 0.0 0.0 0.00 0.00 0.00 88 998.9
20260505094001 18 118 0.0 0.0 0.00 0.00 0.00 88 998.8
20260505093458 18 92 0.0 0.0 0.00 0.00 0.00 88 998.8
20260505092955 19 94 0.0 0.0 0.00 0.00 0.00 87 998.5
20260505092452 19 141 0.0 1.6 0.00 0.00 0.00 87 998.5
20260505091950 19 127 0.0 0.0 0.00 0.00 0.00 87 998.6
20260505091447 19 131 0.0 0.0 0.00 0.00 0.00 87 998.5
20260505090945 19 56 3.2 4.8 0.00 0.00 0.00 86 998.6
20260505090443 19 128 0.0 1.6 0.00 0.00 0.00 86 998.6
20260505085940 20 174 0.0 0.0 0.00 0.00 0.00 86 998.7
20260505085438 20 140 0.0 1.6 0.00 0.00 0.00 86 998.6
20260505084936 20 103 0.0 1.6 0.00 0.00 0.00 86 998.8
20260505084434 20 127 0.0 0.0 0.00 0.00 0.00 86 998.9
20260505083932 20 85 0.0 1.6 0.00 0.00 0.00 86 998.8
20260505083429 20 118 0.0 0.0 0.00 0.00 0.00 86 998.7
20260505082925 20 101 1.6 1.6 0.00 0.00 0.00 86 999.0
20260505082421 20 119 1.6 1.6 0.00 0.00 0.00 86 998.9
20260505081918 20 87 0.0 0.0 0.00 0.00 0.00 85 998.9
20260505081415 20 104 0.0 0.0 0.00 0.00 0.00 85 998.8
20260505080911 20 111 0.0 0.0 0.00 0.00 0.00 85 999.2
20260505080408 20 134 0.0 1.6 0.00 0.00 0.00 85 999.2
20260505075903 20 111 0.0 0.0 0.00 0.00 0.00 84 999.3
20260505075400 20 108 0.0 0.0 0.00 0.00 0.00 84 999.3
20260505074857 20 117 0.0 0.0 0.00 0.00 0.00 84 999.2
20260505074354 20 121 0.0 0.0 0.00 0.00 0.00 84 999.3
20260505073852 20 89 0.0 1.6 0.00 0.00 0.00 84 999.2
20260505073349 20 113 0.0 0.0 0.00 0.00 0.00 84 999.3
20260505072846 20 124 0.0 1.6 0.00 0.00 0.00 84 999.2
20260505072342 20 98 0.0 1.6 0.00 0.00 0.00 83 999.5
20260505071839 20 122 1.6 1.6 0.00 0.00 0.00 83 999.6
20260505071335 20 107 0.0 0.0 0.00 0.00 0.00 82 999.7
20260505070833 20 106 0.0 0.0 0.00 0.00 0.00 82 999.7
20260505070329 21 106 0.0 0.0 0.00 0.00 0.00 82 999.5
20260505065825 21 149 0.0 1.6 0.00 0.00 0.00 81 999.7
20260505065322 21 101 0.0 1.6 0.00 0.00 0.00 81 999.6
20260505064819 21 99 0.0 0.0 0.00 0.00 0.00 80 999.9
20260505064316 21 130 1.6 1.6 0.00 0.00 0.00 80 999.7
20260505063814 21 98 0.0 1.6 0.00 0.00 0.00 80 1000.1
20260505063310 21 111 0.0 0.0 0.00 0.00 0.00 79 999.8
20260505062806 21 100 0.0 0.0 0.00 0.00 0.00 79 999.9
20260505062304 21 254 3.2 3.2 0.00 0.00 0.00 78 999.7
20260505061801 21 112 0.0 0.0 0.00 0.00 0.00 78 999.5
20260505061259 21 123 3.2 4.8 0.00 0.00 0.00 77 999.4
20260505060756 21 66 3.2 4.8 0.00 0.00 0.00 77 999.4
20260505060253 22 111 0.0 0.0 0.00 0.00 0.00 77 999.3
20260505055748 22 148 4.8 4.8 0.00 0.00 0.00 77 999.6
20260505055245 22 94 1.6 1.6 0.00 0.00 0.00 77 999.4
20260505054742 22 175 3.2 4.8 0.00 0.00 0.00 77 999.6
20260505054239 22 141 1.6 3.2 0.00 0.00 0.00 76 999.6
20260505053738 22 142 1.6 1.6 0.00 0.00 0.00 76 999.6
20260505053234 22 110 1.6 1.6 0.00 0.00 0.00 75 999.5
20260505052731 22 160 3.2 4.8 0.00 0.00 0.00 75 999.4
20260505052228 22 100 0.0 1.6 0.00 0.00 0.00 76 999.8
20260505051725 22 115 0.0 0.0 0.00 0.00 0.00 76 999.6
20260505051223 22 127 1.6 1.6 0.00 0.00 0.00 76 999.6
20260505050721 22 104 1.6 1.6 0.00 0.00 0.00 75 999.7
20260505050219 22 79 1.6 3.2 0.00 0.00 0.00 75 999.8
20260505041648 22 143 1.6 1.6 0.00 0.00 0.00 74 999.9
20260505041146 22 122 1.6 3.2 0.00 0.00 0.00 73 1000.0
20260505040643 22 108 0.0 0.0 0.00 0.00 0.00 73 1000.1
20260505040140 22 128 1.6 3.2 0.00 0.00 0.00 73 1000.5
20260505035636 22 151 1.6 3.2 0.00 0.00 0.00 73 999.9
20260505035132 22 116 1.6 3.2 0.00 0.00 0.00 74 1000.1
20260505034629 22 119 1.6 3.2 0.00 0.00 0.00 74 1000.3
20260505034126 22 257 1.6 1.6 0.00 0.00 0.00 73 1000.3
20260505033623 22 145 0.0 3.2 0.00 0.00 0.00 73 1000.4
20260505033121 22 113 3.2 3.2 0.00 0.00 0.00 72 1000.3
20260505032619 22 176 1.6 3.2 0.00 0.00 0.00 73 1000.4
20260505032115 22 93 3.2 4.8 0.00 0.00 0.00 72 1000.3
20260505031612 22 112 1.6 1.6 0.00 0.00 0.00 72 1000.7
20260505031108 22 128 0.0 0.0 0.00 0.00 0.00 72 1000.4
20260505030606 22 175 1.6 3.2 0.00 0.00 0.00 72 1000.4
20260505025557 23 126 0.0 0.0 0.00 0.00 0.00 72 1000.3
20260505025057 23 114 0.0 1.6 0.00 0.00 0.00 71 1000.4
20260505024553 23 122 0.0 1.6 0.00 0.00 0.00 71 1000.3
20260505024050 23 139 1.6 1.6 0.00 0.00 0.00 71 1000.2
20260505023547 23 124 1.6 3.2 0.00 0.00 0.00 71 1000.6
20260505023045 23 104 0.0 0.0 0.00 0.00 0.00 71 1000.4
20260505022542 23 63 1.6 1.6 0.00 0.00 0.00 71 1000.0
20260505022039 23 120 0.0 1.6 0.00 0.00 0.00 71 1000.3
20260505021536 23 122 0.0 0.0 0.00 0.00 0.00 72 1000.2
20260505021032 23 136 0.0 0.0 0.00 0.00 0.00 71 1000.0
20260505020526 23 68 1.6 3.2 0.00 0.00 0.00 71 1000.1
20260505020024 23 109 0.0 0.0 0.00 0.00 0.00 71 1000.2
20260505015521 23 153 1.6 3.2 0.00 0.00 0.00 70 1000.4
20260505015018 23 137 0.0 0.0 0.00 0.00 0.00 70 1000.3
20260505014515 23 156 1.6 1.6 0.00 0.00 0.00 70 1000.4
20260505014012 23 135 1.6 1.6 0.00 0.00 0.00 69 1000.4
20260505013509 23 89 0.0 0.0 0.00 0.00 0.00 70 1000.5
20260505013006 23 109 1.6 3.2 0.00 0.00 0.00 69 1000.3
20260505012505 23 134 0.0 1.6 0.00 0.00 0.00 68 1000.3
20260505012001 23 91 3.2 3.2 0.00 0.00 0.00 68 1000.4
20260505011456 23 120 1.6 1.6 0.00 0.00 0.00 68 1000.4
20260505010954 24 94 1.6 1.6 0.00 0.00 0.00 67 1000.1
20260505010449 24 153 0.0 1.6 0.00 0.00 0.00 66 1000.5
20260505005946 24 132 0.0 0.0 0.00 0.00 0.00 66 1000.3
20260505005442 24 123 1.6 1.6 0.00 0.00 0.00 65 1000.4
20260505004940 25 163 3.2 4.8 0.00 0.00 0.00 65 1000.5
20260505004437 25 162 3.2 3.2 0.00 0.00 0.00 66 1000.6
20260505003934 25 89 0.0 1.6 0.00 0.00 0.00 66 1000.5
20260505003431 25 126 3.2 4.8 0.00 0.00 0.00 65 1000.2
20260505002927 25 145 3.2 4.8 0.00 0.00 0.00 65 1000.4
20260505002423 25 119 0.0 0.0 0.00 0.00 0.00 65 1000.3
20260505001922 25 104 1.6 3.2 0.00 0.00 0.00 63 1000.5
20260505001419 25 158 3.2 3.2 0.00 0.00 0.00 63 1000.6
20260505000916 25 138 1.6 1.6 0.00 0.00 0.00 62 1000.4
20260505000414 25 117 0.0 0.0 0.00 0.00 0.00 62 1000.4
20260504235910 25 154 1.6 3.2 0.00 0.00 0.00 61 1000.3
20260504235408 25 335 1.6 4.8 0.00 0.00 0.00 61 1000.7
20260504234904 26 130 0.0 1.6 0.00 0.00 0.00 61 1000.7
20260504234402 26 136 3.2 3.2 0.00 0.00 0.00 60 1000.7
20260504233858 26 123 1.6 1.6 0.00 0.00 0.00 61 1000.9
20260504233353 26 84 1.6 3.2 0.00 0.00 0.00 59 1001.1
20260504232850 26 134 0.0 0.0 0.00 0.00 0.00 59 1000.9
20260504232348 26 95 1.6 3.2 0.00 0.00 0.00 58 1001.1
20260504231844 26 121 3.2 3.2 0.00 0.00 0.00 58 1000.9
20260504231341 26 81 1.6 4.8 0.00 0.00 0.00 58 1001.1
20260504230837 26 113 1.6 1.6 0.00 0.00 0.00 58 1000.9
20260504230335 26 196 3.2 6.4 0.00 0.00 0.00 58 1001.2
20260504225833 26 44 1.6 3.2 0.00 0.00 0.00 57 1001.0
20260504225329 26 318 4.8 6.4 0.00 0.00 0.00 56 1001.1
20260504224827 27 84 4.8 6.4 0.00 0.00 0.00 55 1001.3
20260504224324 27 151 3.2 4.8 0.00 0.00 0.00 54 1001.3
20260504223821 27 182 3.2 4.8 0.00 0.00 0.00 54 1001.3
20260504223316 27 127 0.0 1.6 0.00 0.00 0.00 54 1001.2
20260504222813 27 111 3.2 3.2 0.00 0.00 0.00 55 1001.5
20260504222310 27 338 1.6 4.8 0.00 0.00 0.00 53 1001.4
20260504221808 27 158 1.6 1.6 0.00 0.00 0.00 56 1001.4
20260504221304 27 137 1.6 1.6 0.00 0.00 0.00 56 1001.4
20260504220801 27 125 1.6 1.6 0.00 0.00 0.00 55 1001.4
20260504220258 27 133 3.2 3.2 0.00 0.00 0.00 53 1001.4
20260504215756 27 122 0.0 0.0 0.00 0.00 0.00 55 1001.6
20260504215252 27 108 3.2 4.8 0.00 0.00 0.00 54 1001.5
20260504214747 27 152 1.6 1.6 0.00 0.00 0.00 54 1001.5